Location: *
(13.2257°S, 48.7193°W)
Time: 13:02:04
(UTC+00:00)

Cosmos 1703 Rocket - Pass Details

Date: 13 February 2026
Orbit: 600 x 624 km, 82.5° (Epoch: 11 March)

Event Time Altitude Azimuth Distance (km) Brightness Sun altitude
Exits shadow 07:37:24 52° 223° (SW) 783 3.8 -23.0°
Drops below altitude 10° 07:41:03 10° 185° (S) 2,003 6.3 -22.2°
Sets 07:43:19 0° 181° (S) 2,912 7.3 -21.7°
